Weather History for Lovelock, NV

Change the Weather History Date:

Saturday, December 8, 2012

  Actual Average Record
Temperature  
Mean Temperature 35 °F -  
Max Temperature 51 °F 45 °F 62 °F (1993)
Min Temperature 19 °F 16 °F -9 °F (2013)
Degree Days  
Heating Degree Days 30    
Moisture  
Dew Point 22 °F    
Average Humidity 81    
Maximum Humidity 100    
Minimum Humidity 32    
Precipitation  
Precipitation 0.00 in - - ()
Sea Level Pressure  
Sea Level Pressure 30.11 in    
Wind  
Wind Speed 2 mph (NW)    
Max Wind Speed 9 mph    
Max Gust Speed -    
Visibility 6 miles    
Events Fog    
Averages and records for this station are not official NWS values.
T = Trace of Precipitation, MM = Missing Value Source: NWS Daily Summary

Daily Weather History Graph

Daily Weather History Graph

Search for Another Location

Airport:

Trip Planner

Search our weather history database for the weather conditions in past years. The results will help you decide how hot, cold, wet, or windy it might be!

Date:

Astronomy

Dec. 08, 2012 Rise Set
Actual Time 7:04 AM PST 4:28 PM PST
Civil Twilight 6:33 AM PST 4:59 PM PST
Nautical Twilight 5:59 AM PST 5:33 PM PST
Astronomical Twilight 5:26 AM PST 6:05 PM PST
Moon 1:34 AM PST (12/8) 1:01 PM PST (12/8)
Length of Visible Light 10h 25m
Length of Day
9h 24m
Waning Crescent, 27% of the Moon is Illuminated
Dec 8
Waning Crescent
Dec 13
New
Dec 19
First Quarter
Dec 28
Full
Jan 4
Last Quarter

Hourly Weather History & Observations

Time (PST) Temp. Windchill Dew Point Humidity Pressure Visibility Wind Dir Wind Speed Gust Speed Precip Events Conditions
12:53 AM 23.0 °F - 21.0 °F 92% 30.13 in 10.0 mi Calm Calm - N/A   Clear
1:53 AM 23.0 °F - 21.9 °F 96% 30.12 in 10.0 mi Calm Calm - N/A   Clear
2:59 AM 21.9 °F - 21.0 °F 96% 30.07 in 10.0 mi Calm Calm - N/A   Mostly Cloudy
3:07 AM 21.9 °F 17.2 °F 19.9 °F 92% 30.07 in 2.0 mi West 3.5 mph - N/A   Scattered Clouds
3:14 AM 21.0 °F 14.6 °F 21.0 °F 100% 30.07 in 1.8 mi West 4.6 mph - N/A   Scattered Clouds
3:16 AM 21.0 °F 13.4 °F 21.0 °F 100% 30.07 in 3.0 mi WNW 5.8 mph - N/A   Scattered Clouds
3:45 AM 21.0 °F 12.4 °F 21.0 °F 100% 30.07 in 1.5 mi SSE 6.9 mph - N/A   Scattered Clouds
3:53 AM 21.0 °F 13.4 °F 19.9 °F 96% 30.13 in 1.0 mi ESE 5.8 mph - N/A   Mist
4:11 AM 21.0 °F - 21.0 °F 100% 30.07 in 0.8 mi Calm Calm - N/A   Mist
4:20 AM 21.0 °F 14.6 °F 19.9 °F 96% 30.07 in 2.0 mi NE 4.6 mph - N/A   Overcast
4:28 AM 21.9 °F - 21.9 °F 100% 30.07 in 7.0 mi Calm Calm - N/A   Mostly Cloudy
4:43 AM 21.0 °F - 19.9 °F 96% 30.06 in 1.5 mi Calm Calm - N/A   Mostly Cloudy
4:53 AM 19.9 °F - 19.0 °F 96% 30.13 in 1.2 mi Calm Calm - N/A   Mostly Cloudy
5:07 AM 19.0 °F - 18.0 °F 96% 30.07 in 0.5 mi Calm Calm - N/A Fog Light Freezing Fog
5:16 AM 19.9 °F 13.4 °F 19.9 °F 100% 30.06 in 2.0 mi West 4.6 mph - N/A   Overcast
5:27 AM 19.0 °F 10.0 °F 18.0 °F 96% 30.06 in 1.0 mi West 6.9 mph - N/A   Mist
5:33 AM 19.9 °F 10.1 °F 19.0 °F 96% 30.06 in 3.0 mi WNW 8.1 mph - N/A   Mostly Cloudy
5:44 AM 21.0 °F 16.2 °F 19.9 °F 96% 30.07 in 10.0 mi NE 3.5 mph - N/A   Scattered Clouds
5:53 AM 19.0 °F 12.3 °F 17.1 °F 92% 30.13 in 6.0 mi South 4.6 mph - N/A   Partly Cloudy
6:53 AM 19.9 °F - 18.0 °F 92% 30.15 in 10.0 mi Calm Calm - N/A   Scattered Clouds
7:05 AM 19.0 °F - 17.1 °F 92% 30.08 in 9.0 mi Calm Calm - N/A   Mostly Cloudy
7:48 AM 21.2 °F - 19.4 °F 93% 30.09 in 0.8 mi Calm Calm - N/A   Overcast
7:53 AM 21.9 °F - 21.0 °F 96% 30.17 in 0.5 mi Calm Calm - N/A Fog Light Freezing Fog
8:01 AM 23.0 °F - 21.9 °F 96% 30.10 in 2.0 mi Calm Calm - N/A   Scattered Clouds
8:08 AM 24.1 °F - 23.0 °F 96% 30.09 in 8.0 mi Calm Calm - N/A   Partly Cloudy
8:53 AM 30.9 °F - 28.9 °F 92% 30.18 in 10.0 mi Calm Calm - N/A   Clear
9:53 AM 36.0 °F - 33.1 °F 89% 30.19 in 10.0 mi Calm Calm - N/A   Clear
10:53 AM 42.1 °F 38.4 °F 33.1 °F 70% 30.16 in 10.0 mi SSE 5.8 mph - N/A   Clear
11:53 AM 46.0 °F 43.1 °F 25.0 °F 44% 30.13 in 10.0 mi SW 5.8 mph - N/A   Clear
12:53 PM 48.9 °F - 23.0 °F 36% 30.11 in 10.0 mi Calm Calm - N/A   Clear
1:53 PM 50.0 °F - 21.9 °F 33% 30.08 in 10.0 mi WSW 4.6 mph - N/A   Clear
2:53 PM 51.1 °F - 21.9 °F 32% 30.09 in 10.0 mi Calm Calm - N/A   Clear
3:53 PM 50.0 °F - 26.1 °F 39% 30.09 in 10.0 mi Calm Calm - N/A   Clear
5:53 PM 39.9 °F 36.7 °F 24.1 °F 53% 30.14 in 10.0 mi NNE 4.6 mph - N/A   Clear
6:53 PM 34.0 °F 28.8 °F 23.0 °F 64% 30.17 in 10.0 mi ENE 5.8 mph - N/A   Clear
7:53 PM 36.0 °F 31.1 °F 24.1 °F 62% 30.18 in 10.0 mi NNE 5.8 mph - N/A   Clear
8:53 PM 35.1 °F 31.0 °F 24.1 °F 64% 30.19 in 10.0 mi North 4.6 mph - N/A   Clear
9:53 PM 36.0 °F 33.3 °F 23.0 °F 59% 30.19 in 10.0 mi NNE 3.5 mph - N/A   Clear
10:53 PM 35.1 °F 31.0 °F 23.0 °F 61% 30.21 in 10.0 mi NNW 4.6 mph - N/A   Clear
11:53 PM 35.1 °F 27.9 °F 21.9 °F 59% 30.21 in 10.0 mi North 9.2 mph - N/A   Clear